Weather History for Park Rapids, MN

Change the Weather History Date:

Wednesday, April 2, 2014

  Actual Average Record
Temperature  
Mean Temperature 21 °F -  
Max Temperature 37 °F 45 °F 69 °F (1981)
Min Temperature 6 °F 22 °F -8 °F (1975)
Degree Days  
Heating Degree Days 44    
Moisture  
Dew Point 13 °F    
Average Humidity 65    
Maximum Humidity 92    
Minimum Humidity 37    
Precipitation  
Precipitation 0.00 in - - ()
Sea Level Pressure  
Sea Level Pressure 30.20 in    
Wind  
Wind Speed 4 mph (ESE)    
Max Wind Speed 12 mph    
Max Gust Speed -    
Visibility 9 miles    
Events Snow    
Averages and records for this station are not official NWS values.
T = Trace of Precipitation, MM = Missing Value Source: NWS Daily Summary

Daily Weather History Graph

Daily Weather History Graph

Search for Another Location

Airport:

Trip Planner

Search our weather history database for the weather conditions in past years. The results will help you decide how hot, cold, wet, or windy it might be!

Date:

Astronomy

Apr. 02, 2014 Rise Set
Actual Time 6:57 AM CDT 7:50 PM CDT
Civil Twilight 6:26 AM CDT 8:21 PM CDT
Nautical Twilight 5:49 AM CDT 8:58 PM CDT
Astronomical Twilight 5:11 AM CDT 9:37 PM CDT
Moon 8:32 AM CDT (4/2) 11:27 PM CDT (4/2)
Length of Visible Light 13h 55m
Length of Day
12h 53m
Waxing Crescent, 10% of the Moon is Illuminated
Apr 2
Waxing Crescent
Apr 7
First Quarter
Apr 15
Full
Apr 22
Last Quarter
Apr 29
New

Hourly Weather History & Observations

Time (CDT) Temp. Windchill Dew Point Humidity Pressure Visibility Wind Dir Wind Speed Gust Speed Precip Events Conditions
12:53 AM 9.0 °F 2.4 °F 7.0 °F 92% 30.20 in 10.0 mi West 3.5 mph - N/A   Clear
1:53 AM 8.1 °F 1.4 °F 6.1 °F 92% 30.21 in 10.0 mi West 3.5 mph - N/A   Clear
2:53 AM 8.1 °F -2.0 °F 5.0 °F 87% 30.22 in 10.0 mi West 5.8 mph - N/A   Clear
3:53 AM 7.0 °F -1.7 °F 5.0 °F 92% 30.22 in 10.0 mi WNW 4.6 mph - N/A   Clear
4:53 AM 6.1 °F -2.8 °F 3.9 °F 91% 30.22 in 10.0 mi NW 4.6 mph - N/A   Clear
5:53 AM 6.1 °F - 3.0 °F 87% 30.25 in 10.0 mi Calm Calm - N/A   Clear
7:53 AM 8.1 °F 1.4 °F 5.0 °F 87% 30.26 in 10.0 mi North 3.5 mph - N/A   Clear
8:53 AM 16.0 °F - 10.9 °F 81% 30.25 in 10.0 mi Calm Calm - N/A   Clear
9:53 AM 21.0 °F 14.6 °F 12.9 °F 71% 30.24 in 10.0 mi NE 4.6 mph - N/A   Clear
10:53 AM 26.1 °F 21.9 °F 12.0 °F 55% 30.25 in 10.0 mi NE 3.5 mph - N/A   Clear
11:53 AM 28.0 °F 22.8 °F 12.9 °F 53% 30.23 in 10.0 mi East 4.6 mph - N/A   Clear
12:53 PM 30.9 °F 25.2 °F 15.1 °F 52% 30.24 in 10.0 mi SE 5.8 mph - N/A   Clear
1:53 PM 34.0 °F 28.0 °F 15.1 °F 46% 30.22 in 10.0 mi ESE 6.9 mph - N/A   Clear
2:53 PM 35.1 °F 27.9 °F 15.1 °F 44% 30.21 in 10.0 mi SSE 9.2 mph - N/A   Clear
3:53 PM 36.0 °F 28.0 °F 16.0 °F 44% 30.20 in 10.0 mi SSE 11.5 mph - N/A   Clear
4:53 PM 35.6 °F 29.9 °F 14.0 °F 41% 30.11 in 10.0 mi SE 6.9 mph - N/A   Clear
5:53 PM 36.0 °F 30.3 °F 15.1 °F 43% 30.19 in 10.0 mi ESE 6.9 mph - N/A   Clear
6:53 PM 36.0 °F 30.3 °F 12.0 °F 37% 30.18 in 10.0 mi East 6.9 mph - N/A   Clear
7:53 PM 35.1 °F 30.1 °F 14.0 °F 42% 30.17 in 10.0 mi East 5.8 mph - N/A   Clear
8:53 PM 33.1 °F - 16.0 °F 50% 30.17 in 10.0 mi Calm Calm - N/A   Scattered Clouds
9:53 PM 33.1 °F - 17.1 °F 52% 30.18 in 10.0 mi Calm Calm - N/A   Overcast
10:53 PM 32.0 °F - 21.0 °F 64% 30.18 in 10.0 mi Calm Calm - N/A   Overcast
11:48 PM 32.0 °F 24.2 °F 23.0 °F 69% 30.13 in 3.0 mi SE 9.2 mph - 0.00 in Snow Light Snow
11:53 PM 30.9 °F 22.2 °F 25.0 °F 79% 30.19 in 2.5 mi SSE 10.4 mph - 0.00 in Snow Light Snow